Location: Mt. Chestnut Observatory
(40.9038°N, 79.9956°W)
Time: 16:17:34
(UTC-04:00)

Daily predictions for brighter satellites

Satellite Brightness Start Highest point End
(mag) Time Altitude Azimuth Time Altitude Azimuth Time Altitude Azimuth
USA 234 4.2 21:00:47 10° E 21:06:46 39° NNE 21:12:46 10° NW
Envisat 4.0 21:03:49 10° SE 21:08:11 30° ENE 21:12:34 10° N
Cosmos 1110 Rocket 4.1 21:04:15 10° NNW 21:09:35 81° ENE 21:14:50 10° SSE
USA 186 2.2 21:10:56 10° S 21:13:46 54° W 21:16:27 10° NNW
Abrixas rocket 2.5 21:11:16 10° WNW 21:14:42 70° NNE 21:18:07 10° ESE
Meteor 2-4 Rocket 3.9 21:09:50 10° S 21:15:36 64° E 21:21:28 10° NNE
Cosmos 2333 Rocket 3.8 21:12:20 10° SW 21:17:37 41° WNW 21:22:58 10° N
Okean 2 3.5 21:13:49 10° S 21:17:54 57° E 21:22:02 10° NNE
Meteor 1-19 Rocket 4.3 21:12:21 10° S 21:18:00 90° NW 21:23:36 10° N
BREEZE M DEB (TANK) 2.6 21:15:36 10° WNW 21:19:15 43° N 21:21:11 10° ENE
Cosmos 2297 3.8 21:13:44 10° NNW 21:19:28 85° WSW 21:25:12 10° SSE
FENGYUN 3A 4.2 21:21:48 10° S 21:27:05 59° W 21:32:25 10° NNW
Cosmos 1726 Rocket 3.9 21:22:58 10° NNW 21:27:25 72° W 21:31:48 10° S
H-2A R/B 3.9 21:25:52 10° S 21:29:38 45° W 21:33:29 10° NNW
PSLV R/B 4.0 21:29:03 10° SW 21:32:19 36° SSE 21:35:37 10° E
ISS -1.8 21:30:27 10° S 21:32:39 17° SE 21:34:52 10° E
Cosmos 2285 Rocket 4.1 21:28:10 10° NNW 21:34:31 87° WSW 21:40:52 10° SSE
Cosmos 1461 3.2 21:34:33 10° NNW 21:38:49 54° NE 21:42:09 14° SE
CZ-2C R/B 2.0 21:37:27 10° SSW 21:39:35 34° W 21:41:45 10° NNW
Cosmos 494 Rocket 4.2 21:34:39 10° SSW 21:39:45 74° WNW 21:44:53 10° NNE
SPOT 5 3.0 21:36:20 11° SE 21:40:22 48° ENE 21:44:33 10° N
Cosmos 2058 Rocket 3.4 21:36:46 10° NNW 21:41:08 66° W 21:45:25 10° S
Cosmos 1464 Rocket 4.1 21:39:06 10° N 21:45:15 84° W 21:51:26 10° S
Cosmos 1602 Rocket 3.6 21:42:07 10° S 21:46:31 61° E 21:50:57 10° NNE
CZ-4 SHROUD 3.3 21:46:44 15° SSE 21:49:11 61° ENE 21:52:19 10° N
H-2A R/B 4.0 21:48:38 10° E 21:51:10 14° ENE 21:53:44 10° NNE
ALOS 4.2 21:48:29 10° SSW 21:52:29 28° W 21:56:31 10° NW
GRACE-1 4.0 21:50:23 10° N 21:53:14 57° E 21:55:06 19° SSE
GRACE-2 4.0 21:50:50 10° N 21:53:41 57° E 21:55:33 19° SSE
Aureole 2 Rocket 3.1 21:49:49 10° SSW 21:53:45 65° WNW 21:57:21 10° NNE
deb Chang Zheng 4 4.2 21:49:35 10° N 21:53:55 59° WNW 21:58:12 10° SSW
Cosmos 1812 Rocket 3.8 21:53:02 10° N 21:57:20 53° E 22:00:27 18° SSE
Cosmos 2278 Rocket 4.5 21:55:06 10° NW 21:59:05 20° W 22:03:04 10° SW
SPOT 1/Viking Rocket 4.1 21:55:42 17° SE 21:59:21 42° ENE 22:04:12 10° N
Terra 3.8 22:00:40 11° E 22:03:04 16° ENE 22:05:53 10° NNE
Cosmos 2034 Rocket 4.1 21:57:27 10° N 22:03:51 81° W 22:10:10 10° S
Atlas Centaur 2 3.6 22:02:59 10° SW 22:09:48 35° SSE 22:15:35 16° ESE
USA 245 4.5 22:05:43 18° SE 22:10:09 57° ENE 22:15:19 10° N
H-2A R/B 3.4 22:06:18 10° SSW 22:10:13 36° W 22:14:15 10° NNW
SeaSat 1 2.5 22:07:21 18° SSE 22:11:03 82° WSW 22:16:01 10° NNW
Cosmos 2369 Rocket 3.1 22:07:56 10° N 22:13:10 37° ENE 22:16:29 20° ESE
ARGOS 3.6 22:10:34 21° SE 22:13:57 47° ENE 22:19:08 10° N
DEBRIS 2.8 22:10:16 10° WNW 22:14:43 45° SW 22:15:34 31° S
Cosmos 1666 4.1 22:12:53 10° NNW 22:16:29 36° W 22:20:04 10° SSW
CZ-4B R/B 3.5 22:12:52 10° NNE 22:17:57 71° ESE 22:22:53 11° S
PSLV R/B 3.9 22:16:10 19° SSW 22:18:07 48° W 22:21:09 10° NNW
SL-16 R/B 4.1 22:14:23 10° WSW 22:19:25 32° WNW 22:24:29 10° N
Cosmos 1626 Rocket 4.2 22:15:16 10° SSW 22:19:38 57° W 22:24:00 10° N
Cosmos 1939 Rocket 4.3 22:17:48 10° SSW 22:21:39 36° W 22:25:30 10° NNW
NOAA 11 4.4 22:22:44 25° SE 22:25:48 55° ENE 22:31:06 10° N
Milstar 3 Cent rocket 4.2 22:23:35 10° SW 22:26:02 12° SSW 22:27:55 10° S
COSMOS 2455 2.8 22:20:59 10° SSW 22:26:58 81° ESE 22:33:01 10° NNE
Meteor 2-12 Rocket 4.4 22:22:09 10° N 22:28:17 87° ENE 22:32:33 21° S
MetOp-B 4.3 22:28:00 19° S 22:31:54 70° WSW 22:37:16 10° NNW
Cosmos 1953 4.4 22:31:46 10° NE 22:33:55 14° ENE 22:34:19 14° ENE
Lacrosse 5 rocket 4.4 22:31:32 10° WNW 22:34:03 16° NNW 22:36:39 10° NNE
Cosmos 1953 Rocket 3.8 22:35:33 35° SE 22:37:00 50° E 22:41:17 10° NNE
ATLAS 3B R/B 3.1 22:29:50 10° S 22:37:14 52° ESE 22:44:31 10° NE
Meteor 1-22 Rocket 4.5 22:31:57 10° N 22:37:24 53° ENE 22:40:02 30° SE
Cosmos 2346 Rocket 4.4 22:36:44 20° S 22:41:11 76° E 22:47:21 10° N
IGS 5A 4.5 22:43:55 28° E 22:44:46 31° ENE 22:48:27 10° N
Cosmos 1515 4.1 22:43:53 22° SSW 22:46:11 60° W 22:50:01 10° N
Envisat 4.4 22:42:41 10° SSW 22:47:06 32° W 22:51:38 10° NNW
Cosmos 1066 Rocket 4.2 22:43:48 22° S 22:47:34 82° E 22:53:23 10° NNE
USA 234 3.3 22:45:49 29° SE 22:49:28 75° SW 22:56:03 10° NW
Cosmos 407 Rocket 3.6 22:49:25 34° SSE 22:51:29 56° ESE 22:56:37 10° NNE
Abrixas rocket 4.3 22:49:07 10° W 22:51:25 18° SW 22:51:25 18° SW
Cosmos 1346 Rocket 2.6 22:56:00 54° S 22:56:48 81° E 23:00:44 10° NNE
DELTA 2 DEB (DPAF) 4.1 22:56:14 43° SSE 22:57:41 89° W 23:02:12 10° NNW
Cosmos-2242 3.9 22:53:50 10° N 22:57:51 33° ENE 22:58:21 32° E
SL-23 DEB 4.5 22:52:01 10° SSW 22:58:00 45° SE 22:58:26 44° SE
Lacrosse 4 Rocket 1.3 22:59:11 57° ESE 22:59:18 57° ESE 23:03:20 10° NE
YAOGAN 6 4.1 23:02:20 24° SW 23:03:43 31° W 23:07:06 10° NNW
USA 81 4.4 23:00:06 10° NNW 23:05:19 60° W 23:08:02 28° SSW
ISS -2.6 23:05:36 10° WSW 23:08:48 53° NNW 23:12:01 10° NE
BREEZE-M DEB (TANK) 3.9 23:06:38 10° W 23:09:06 27° NNW 23:09:51 21° N
PSLV R/B 3.5 23:06:15 10° W 23:09:23 68° WSW 23:09:23 68° WSW
Cosmos 1954 Rocket 4.3 23:09:47 44° SE 23:10:31 47° ESE 23:15:36 10° NNE
Cosmos 1758 Rocket 3.5 23:10:07 49° SSW 23:11:17 84° W 23:15:41 10° N
USA 238 DEB 4.2 23:10:59 35° SE 23:12:01 37° ESE 23:18:22 10° NE
USA 238 4.3 23:11:09 35° SE 23:12:08 36° ESE 23:18:27 10° NE
Cosmos 1943 3.4 23:07:20 12° SSW 23:12:36 70° WNW 23:18:18 10° NNE
Cosmos 1842 3.5 23:13:33 55° E 23:13:33 55° E 23:17:11 10° NNE
Meteor 1-21 4.2 23:11:19 38° S 23:13:40 80° E 23:19:30 10° NNE
CARTOSAT-1 3.4 23:14:29 63° SSE 23:15:09 83° ENE 23:19:30 10° N
Cosmos 1758 4.0 23:15:11 10° N 23:19:02 42° ENE 23:19:02 42° ENE
Cosmos 1943 Rocket 2.6 23:16:37 10° NNW 23:22:02 51° ENE 23:23:31 40° ESE
Spot 4 3.8 23:22:16 59° SE 23:23:06 76° ENE 23:27:53 10° N
Spot 2 4.3 23:19:25 10° NNE 23:24:12 86° ESE 23:25:25 53° S
Landsat 7 4.1 23:23:17 44° SSW 23:24:30 59° W 23:29:13 10° NNW
H-2A R/B 2.0 23:28:49 52° SSW 23:29:56 72° WSW 23:34:59 10° NNW
SAR-Lupe-2 4.1 23:30:47 51° W 23:30:47 51° W 23:34:06 10° NNW
Cosmos 1092 Rocket 4.4 23:33:02 40° ESE 23:34:10 44° E 23:40:06 10° NNE
Cosmos 1766 3.6 23:30:15 10° NNW 23:34:12 56° W 23:34:21 55° WSW
Terra 2.1 23:39:33 51° SW 23:40:19 58° W 23:45:02 10° NNW
Cosmos 1842 Rocket 4.0 23:37:30 10° N 23:41:34 50° ENE 23:41:34 50° ENE
Cosmos 1570 Rocket 4.4 23:37:29 10° N 23:42:45 53° ENE 23:43:34 48° E
Cosmos 1850 Rocket 4.3 23:46:11 49° E 23:46:11 49° E 23:50:58 10° NNE
Nadezhda 4 Rocket 3.9 23:45:01 52° SSE 23:46:37 76° E 23:52:57 10° N
CZ-4C R/B 4.0 23:54:53 16° E 23:54:53 16° E 23:56:52 10° ENE
